FALCON 9 DEB (52385 NORAD) Tracking and Keplerian Element Data

This shows tracking and keplerian element data for the satellite.

Feedback or suggestion? Click here.




ElementValue
Catalog52385
NameFALCON 9 DEB
Epoch Orbit684
Epoch Day162.61743705
Epoch Year2022
RAAN216.9692
Inclination53.1983
Eccentricity0.0009547
Argument of Perigee0.7662
Mean Anonmoly359.3395
Mean Motion16.29559986
Decay Rate0.02992241
L11 52385U 22045BG 22162.61743705 .02992241 12097-4 65838-3 0 9997
L22 52385 53.1983 216.9692 0009547 0.7662 359.3395 16.29559986 6840

Live tracking and technical data element details for FALCON 9 DEB (NORAD 52385). FALCON 9 DEB can be tracked NOW for your location showing map with azimuth and elevation plus other details from your city location.

Track the satellite on the map from your city or location and see movement details for azimuth, elevation, latitude, longitude, range, height, and movement on the map or in text.







IsCatalogInMostPopularTable: catalog: 52385, numindb: 1
Update: records affected: 1



GetName: 52385 FALCON 9 DEB

Hit Count: updated at: Mon, 27 Jun 2022 06:30:27 GMT